Hors Challenge

Le Trail Chrono - Houtain-Saint-Siméon (21.00 km)

vendredi 16 octobre 2020

Vous pouvez trouver Le classement original sur : https://www.facebook.com/lesvraisamishoutain
 
TRAIL CHRONO - HOUTAIN-SAINT-SIMÉON
DISTANCE : 20.79 km
vendredi 16 octobre 2020
 
Place dos NOM Catégorie Pl/cat temps temps/km Vitesse
01:00:00              
1 21210
PISSENS JÉRÉMY
HOMME 1 1:23:10 04:00 15.00
2 21233 WIERTZ XAVIER HOMME 2 1:23:53 04:02 14.87
3 21212 REGNARD ANTOINE HOMME 3 01:25:39 04:07 14.57
4 21234 WIL.LAMME SIMON HOMME 4 01:28:15 04:15 14.14
5 21009 SONGEAS DIMITRI HOMME 5 01:28:37 04:16 14.08
6 21032 FABRE FLORIAN HOMME 6 01:29:17 04:18 13.97
7 21027 DAISSI TOUFLK HOMME 7 01:30:26 04:21 13.79
8 21053 LAMBOTTE BENOIT HOMME 8 01:30:32 04:21 13.78
9 21223 SOARES FERNANDO HOMME 9 01:32:12 04:26 13.53
10 21012 BAUNEEL PHILIPPE HOMME 10 01:33:40 04:30 13.32
11 21219 SCHOUMACKERS BENOLL HOMME 11 01:33:54 04:31 13.29
12 21017 DEGAAEVE JEREMLE HOMME 12 01:36:14 04:38 12.96
13 21022 DETILLOUX CHRISTOPHE HOMME 13 01:39:00 04:46 12.60
14 21046 HENROTTIN GAEL HOMME 14 01:40:00 04:49 12.48
15 21213 RENARD ALEXANDRINE DAME 1 01:41:24 04:53 12.30
16 21060 LOGNOUL FABIEN HOMME 15 01:42:12 04:55 12.21
17 21226 STEEMAN ALALN HOMME 16 01:42:12 04:55 12.21
18 21208 PINSAAT VINCENT HOMME 17 01:43:08 04:58 12.10
19 21038 FRANCUS BRIEUC HOMME 18 01:43:10 04:58 12.09
20 21221 SIMON BABOU CLAUDE HOMME 19 01:44:11 05:01 11.97
21 21006 BAUDRIE CORENTIN HOMME 20 01:44:40 05:02 11.92
22 21043 GILLET YVES HOMME 21 01:44:44 05:02 11.91
23 21061 MAHY SAMUEL HOMME 22 01:45:50 05:05 11.79
24 21203 OGER SYLVAIN HOMME 23 01:46:25 05:07 11.72
25 21013 COP THOMAS HOMME 24 01:46:35 05:08 11.70
26 21037 FRERE SEBASLLEN HOMME 25 1:46:51 05:08 11.68
27 21039 FROIDMONT DANIELLE DAME 2 01:46:51 05:08 11.68
28 21057 LEGROS GHISLAIN HOMME 26 01:46:53 05:08 11.67
29 21222 SIMONIS JULIEN HOMME 27 01:47:39 05:11 11.59
30 21066 MOULET BORIS HOMME 28 01:47:47 05:11 11.57
31 21065 PIRON STEPHANO HOMME 29 01:48:21 05:13 11.51
32 21230 VO VAN PHILIPPE HOMME 30 01:48:41 05:14 11.48
33 21231 WATAR FRANCIS HOMME 31 01:48:43 05:14 11.47
34 21204 OTTEN YANNIC HOMME 32 01:49:37 05:16 11.38
35 21002 ABASCAL BRUNO HOMME 33 01:50:03 05:18 11.34
36 21034 FONTAINE SERGE HOMME 34 01:51:02 05:20 11.24
37 21040 GAILLET OLIVIER HOMME 35 01:51:46 05:23 11.16
38 21070 NYSSEN PLERRE2 HOMME 36 01:52:29 05:25 11.09
39 248 PIAZZA MANU HOMME 37 01:52:55 05:26 11.05
40 21229 VANCRAYEBECK JULIEN HOMME 38 01:52:59 05:26 11.04
41 21010 BORGUET JEAN-MARIO HOMME 39 01:53:01 05:26 11.04
42 21217 SAUVEUR PHILIPPE HOMME 40 01:53:15 05:27 11.02
43 21052 LACROIX LIONEL HOMME 41 01:53:20 05:27 11.01
44 21041 GEORGES MICHAEL HOMME 42 01:53:21 05:27 11.01
45 21209 PIRSON S1ÉPHANE HOMME 43 01:53:23 05:27 11.00
46 21020 DENDAL DIDIER HOMME 44 01:53:33 05:28 10.99
47 21018 DELARBRE PATRICK HOMME 45 01:55:19 05:33 10.82
48 21014 CUIPERS GUILLAUME HOMME 46 01:55:35 05:34 10.79
49 21216 ROYEN JULIEN HOMME 47 01:55:39 05:34 10.79
50 21026 DOCOUIER FABRICE HOMME 48 01:55:46 05:34 10.78
51 12122 PIOT HERVÉ HOMME 49 01:56:18 05:36 10.73
52 21045 GUCKELIRWIN HOMME 50 01:56:20 05:36 10.72
53 21028 VAN DEN BROECK GUILLAUME HOMME 51 01:56:24 05:36 10.72
54 21064 MEERTENS FRÈDÈRIC HOMME 52 01:56:25 05:36 10.72
55 21215 ROMAN CÈDRIC HOMME 53 01:56:42 05:37 10.69
56 21224 SOHET CÉLINE DAME 3 01:57:32 05:39 10.61
57 21218 SCHIDLO ERIC HOMME 54 02:00:00 05:46 10.40
58 21055 LAVIGNE M CHEL HOMME 55 02:00:27 05:48 10.36
59 21029 DUPUIS LÉON MARIE HOMME 56 02:01:06 05:49 10.30
60 21062 MARTINEZ AMÈLLA DAME 4 02:01:12 05:50 10.29
61 21042 GILLET ROMAIN HOMME 57 02:01:26 05:50 10.27
62 21214 RENSON LAURENCE DAME 5 02:02:40 05:54 10.17
63 21024 DEWIT RAYMOND HOMME 58 02:03:22 05:56 10.11
64 21205 OTTEN CHIARA DAME 6 2:04:14 05:59 10.04
65 21050 JANSSEN B.J.A.M. HOMME 59 02:04:19 05:59 10.03
66 21033 FAIRON ARNAUD HOMME 60 02:06:46 06:06 9.84
67 21227 TONUCCI LAURENT HOMME 61 02:06:57 06:06 9.83
68 21063 MATHONET LUDOVIC HOMME 62 02:07:45 06:09 9.77
69 21016 DAUBY ELISABETH DAME 7 02:08:48 06:12 9.69
70 21049 HOFMAN MICHAEL HOMME 63 02:08:51 06:12 9.68
71 21058 LELOUX LAURENT HOMME 64 02:11:39 06:20 9.48
72 21069 NIVARLET FRÉDÉRIC HOMME 65 02:11:44 06:20 9.47
73 21008 BIASINO FABRICE HOMME 66 02:12:30 06:22 9.42
74 21007 BEGUIN ELLIOT HOMME 67 02:12:48 06:23 9.39
75 21030 ENGELS LOUIS HOMME 68 02:12:48 06:23 9.39
76 21023 DETREZ VIOLETTE DAME 8 02:16:00 06:32 9.17
77 21048 HEYNEN FREDERICK HOMME 69 02:16:18 06:33 9.15
78 21035 FRANCUS ADRIAN HOMME 70 02:17:38 06:37 9.06
79 21225 STALLENBERG VANESSA DAME 9 02:18:36 06:40 9.00
80 21051 KEIL ALAIN HOMME 71 02:18:40 06:40 9.00
81 21207 PEETERS ANNE DAME 10 02:18:44 06:40 8.99
82 21005 AVARELLO JEAN-YVES HOMME 72 02:19:51 06:44 8.92
83 21211 RABENDZKI ROMAN HOMME 73 02:24:10 06:56 8.65
84 21220 SEPULT FABRICE HOMME 74 02:25:36 07:00 8.57
85 21228 DUBLET SERGE HOMME 75 02:25:42 07:00 8.56
86 21001 ABAD LAMAS PATR CIA DAME 11 02:32:02 07:19 8.21
87 21068 MULS CHRISTOPHE HOMME 76 02:32:23 07:20 8.19
88 21054 LAMOTTE MARYLÈNE DAME 12 02:37:33 07:35 7.92
89 21067 MOURININGRID DAME 13 02:37:46 07:35 7.91
90 21011 BOSCO VALERIE DAME 14 02:43:57 07:53 7.61
91 21038 FRISEE MARIELLE DAME 15 02:44:01 07:53 7.61